Location: Table Mountain
(47.2500°N, 120.5778°W)
Time: 00:08:56
(UTC-07:00)

Vanguard 2 - All Passes

Search period start: 18 July 2018 00:00
Search period end: 28 July 2018 00:00
Orbit: 553 x 2939 km, 32.9° (Epoch: 17 July)

Date Brightness Start Highest point End Pass type
(mag) Time Alt. Az. Time Alt. Az. Time Alt. Az.
18 Jul - 02:12:08 10° W 02:22:28 20° SW 02:30:51 10° S visible
18 Jul - 17:49:09 10° S 17:59:46 25° SE 18:12:16 10° E daylight
18 Jul - 19:54:58 10° SW 20:09:28 43° SSE 20:25:21 10° E daylight
18 Jul - 22:04:20 10° WSW 22:20:36 49° S 22:35:41 10° ESE visible
19 Jul - 00:16:04 10° W 00:31:10 36° SSW 00:43:30 10° SSE visible
19 Jul - 02:31:54 10° WSW 02:39:38 15° SW 02:46:17 10° SSW visible
19 Jul - 18:05:39 10° SSW 18:17:08 30° SE 18:31:00 10° E daylight
19 Jul - 20:12:28 10° SW 20:27:14 46° SSE 20:43:25 10° ESE daylight
19 Jul - 22:22:17 10° WSW 22:38:26 47° S 22:53:22 10° SE visible
20 Jul - 00:34:29 10° W 00:48:41 31° SSW 01:00:28 10° SSE visible
20 Jul - 02:54:26 10° WSW 02:56:44 10° SW 02:58:56 10° SW visible
20 Jul - 16:20:29 10° SSE 16:26:19 14° SE 16:32:57 10° ESE daylight
20 Jul - 18:22:33 10° SSW 18:34:37 35° SSE 18:49:28 10° E daylight
20 Jul - 20:30:07 10° WSW 20:45:04 48° S 21:01:22 10° ESE daylight
20 Jul - 22:40:19 10° W 22:56:14 44° SSW 23:10:55 10° SE visible
21 Jul - 00:53:08 10° W 01:06:05 26° SW 01:17:05 10° SSE visible
21 Jul - 16:35:34 10° S 16:43:28 19° SE 16:53:06 10° E daylight
21 Jul - 18:39:44 10° SW 18:52:12 39° SSE 19:07:45 10° E daylight
21 Jul - 20:47:53 10° WSW 21:02:55 49° S 21:19:16 10° ESE daylight
21 Jul - 22:58:26 10° W 23:13:57 41° SSW 23:28:17 10° SE visible
22 Jul - 01:12:12 10° W 01:23:24 21° SW 01:33:11 10° S visible
22 Jul - 16:51:40 10° S 17:00:43 24° SE 17:12:15 10° E daylight
22 Jul - 18:57:06 10° SW 19:09:53 43° SSE 19:25:54 10° E daylight
22 Jul - 21:05:45 10° WSW 21:20:47 48° S 21:37:02 10° ESE visible
22 Jul - 23:16:42 10° W 23:31:36 36° SSW 23:45:25 10° SSE visible
23 Jul - 01:32:05 10° WSW 01:40:38 16° SW 01:48:22 10° SSW visible
23 Jul - 17:08:19 10° SSW 17:18:04 29° SE 17:30:58 10° E daylight
23 Jul - 19:14:40 10° SW 19:27:38 46° SSE 19:43:57 10° ESE daylight
23 Jul - 21:23:43 10° WSW 21:38:38 46° S 21:54:40 10° SE visible
23 Jul - 23:35:08 10° W 23:49:09 31° SSW 00:02:15 10° SSE visible
24 Jul - 01:54:39 10° WSW 01:57:47 11° SW 02:00:48 10° SW visible
24 Jul - 15:23:45 10° SSE 15:27:49 12° SE 15:32:28 10° ESE daylight
24 Jul - 17:25:19 10° SSW 17:35:31 34° SSE 17:49:24 10° E daylight
24 Jul - 19:32:21 10° WSW 19:45:27 47° S 20:01:55 10° ESE daylight
24 Jul - 21:41:44 10° W 21:56:26 43° SSW 22:12:10 10° SE visible
24 Jul - 23:53:51 10° W 00:06:37 26° SW 00:18:41 10° S visible
25 Jul - 15:38:45 10° S 15:44:58 17° SE 15:52:45 10° ESE daylight
25 Jul - 17:42:34 10° SW 17:53:05 38° SSE 18:07:40 10° E daylight
25 Jul - 19:50:08 10° WSW 20:03:18 47° S 20:19:47 10° ESE daylight
25 Jul - 21:59:52 10° W 22:14:12 39° SSW 22:29:26 10° SE visible
26 Jul - 00:13:03 10° W 00:24:00 20° SW 00:34:30 10° S visible
26 Jul - 15:54:57 10° S 16:02:13 22° SE 16:11:55 10° E daylight
26 Jul - 18:00:01 10° SW 18:10:45 41° SSE 18:25:49 10° ESE daylight
26 Jul - 20:08:00 10° WSW 20:21:10 46° S 20:37:32 10° ESE daylight
26 Jul - 22:18:09 10° W 22:31:53 34° SSW 22:46:27 10° SSE visible
27 Jul - 00:33:13 10° WSW 00:41:20 15° SW 00:49:14 10° SSW visible
27 Jul - 16:11:41 10° SSW 16:19:35 27° SSE 16:30:36 10° E daylight
27 Jul - 18:17:37 10° SW 18:28:30 44° S 18:43:52 10° ESE daylight
27 Jul - 20:25:57 10° WSW 20:39:01 44° S 20:55:08 10° SE daylight
27 Jul - 22:36:39 10° W 22:49:31 29° SSW 23:03:05 10° SSE visible
